Livingston, MT

12:25 PM MST on December 04, 2016 (GMT -0700)
Mission

Weather History for KLVM - July, 2013

Change the Weather History Date:

Monday, July 15, 2013

  Actual Average Record
Temperature  
Mean Temperature 74 °F 67 °F  
Max Temperature 96 °F 85 °F 101 °F (2007)
Min Temperature 51 °F 50 °F 42 °F (1993)
Degree Days  
Heating Degree Days 0 1  
Month to date heating degree days 34  
Since 1 June heating degree days 241  
Since 1 July heating degree days 34  
Cooling Degree Days 9 4  
Month to date cooling degree days 102 42  
Year to date cooling degree days 152 62  
Since 1 June cooling degree days 144 61  
Growing Degree Days 24 (Base 50)    
Moisture  
Dew Point 41 °F    
Average Humidity 44    
Maximum Humidity 77    
Minimum Humidity 10    
Precipitation  
Precipitation 0.00 in 0.06 in 0.55 in (1953)
Month to date precipitation 1.23 0.79  
Year to date precipitation 7.05 9.44  
Sea Level Pressure  
Sea Level Pressure 29.88 in    
Wind  
Wind Speed 7 mph (West)    
Max Wind Speed 23 mph    
Max Gust Speed 28 mph    
Visibility 10 miles    
Events      
T = Trace of Precipitation, MM = Missing Value Source: NWS Daily Summary

Daily Weather History Graph

Daily Weather History Graph

Search for Another Location

Airport or City:

Trip Planner

Search our weather history database for the weather conditions in past years. The results will help you decide how hot, cold, wet, or windy it might be!

Date:

Astronomy

Jul. 15, 2013 Rise Set
Actual Time 5:47 AM MDT 9:07 PM MDT
Civil Twilight 5:10 AM MDT 9:44 PM MDT
Nautical Twilight 4:22 AM MDT 10:31 PM MDT
Astronomical Twilight 3:21 AM MDT 11:32 PM MDT
Moon 1:36 PM MDT (7/15) No Moon Set
Length of Visible Light 16h 33m
Length of Day
15h 20m
Waxing Crescent, 46% of the Moon is Illuminated
Jul 15
Waxing Crescent
Jul 15
First Quarter
Jul 22
Full
Jul 29
Last Quarter
Aug 6
New

Hourly Weather History & Observations

Time (MDT) Temp. Dew Point Humidity Pressure Visibility Wind Dir Wind Speed Gust Speed Precip Events Conditions
12:53 AM 69.1 °F 48.9 °F 49% 29.95 in 10.0 mi ESE 11.5 mph - N/A   Clear
1:53 AM 63.0 °F 50.0 °F 63% 29.98 in 10.0 mi SSW 3.5 mph - N/A   Clear
2:53 AM 63.0 °F 50.0 °F 63% 29.95 in 10.0 mi SE 5.8 mph - N/A   Clear
3:53 AM 57.9 °F 48.0 °F 70% 29.95 in 10.0 mi SSE 5.8 mph - N/A   Clear
4:53 AM 54.0 °F 46.9 °F 77% 29.96 in 10.0 mi WNW 3.5 mph - N/A   Clear
5:53 AM 54.0 °F 46.9 °F 77% 29.96 in 10.0 mi Calm Calm - N/A   Clear
6:53 AM 57.0 °F 48.0 °F 72% 29.95 in 10.0 mi NNW 8.1 mph - N/A   Clear
7:53 AM 62.1 °F 50.0 °F 65% 29.95 in 10.0 mi NW 5.8 mph - N/A   Clear
8:53 AM 70.0 °F 51.1 °F 51% 29.93 in 10.0 mi NW 10.4 mph - N/A   Clear
9:53 AM 81.0 °F 45.0 °F 28% 29.90 in 10.0 mi WNW 11.5 mph - N/A   Clear
10:53 AM 87.1 °F 37.9 °F 18% 29.86 in 10.0 mi West 15.0 mph - N/A   Clear
11:53 AM 90.0 °F 32.0 °F 13% 29.86 in 10.0 mi SW 6.9 mph 16.1 mph N/A   Clear
12:53 PM 91.9 °F 30.9 °F 11% 29.83 in 10.0 mi Variable 6.9 mph 19.6 mph N/A   Clear
1:53 PM 95.0 °F 30.9 °F 10% 29.83 in 10.0 mi West 10.4 mph 18.4 mph N/A   Clear
2:53 PM 91.0 °F 30.0 °F 11% 29.82 in 10.0 mi Calm Calm - N/A   Clear
3:53 PM 93.9 °F 28.9 °F 10% 29.81 in 10.0 mi Variable 4.6 mph - N/A   Clear
4:53 PM 91.0 °F 30.9 °F 12% 29.81 in 10.0 mi WSW 6.9 mph - N/A   Clear
5:53 PM 91.9 °F 34.0 °F 13% 29.80 in 10.0 mi West 13.8 mph - N/A   Clear
6:53 PM 91.9 °F 32.0 °F 12% 29.78 in 10.0 mi West 11.5 mph - N/A   Clear
7:53 PM 88.0 °F 36.0 °F 16% 29.78 in 10.0 mi West 4.6 mph - N/A   Clear
8:53 PM 79.0 °F 39.0 °F 24% 29.80 in 10.0 mi South 9.2 mph - N/A   Clear
9:53 PM 75.9 °F 39.0 °F 26% 29.81 in 10.0 mi Calm Calm - N/A   Clear
10:53 PM 75.0 °F 39.0 °F 27% 29.86 in 10.0 mi NNW 5.8 mph - N/A   Clear
11:53 PM 71.1 °F 48.0 °F 44% 29.89 in 10.0 mi NW 5.8 mph - N/A   Clear